Regional Weather Roundup
Issued by NWS

Home | Current Version | Previous Version | Text Only | Print | Product List | Glossary On
Versions: 1 2 3 4 5 6 7 8 9 10 11 12 13 14 15 16 17 18 19 20 21 22 23 24 25 26 27 28 29 30 31 32 33 34 35 36 37 38 39 40 41 42 43 44 45 46 47 48 49 50
000
ASUS44 KMEG 251410
RWRTN
TENNESSEE HOURLY STATE WEATHER ROUNDUP
NATIONAL WEATHER SERVICE MEMPHIS TN
800 AM CST SUN JAN 25 2015

TNZ002-004-019-021-049-052-054-088>092-251500-
WEST TENNESSEE

CITY           SKY/WX    TMP DP  RH WIND       PRES   REMARKS
MEMPHIS INTL   MOCLDY    44  35  70 SW13      29.75F
NWS MEMPHIS      N/A     42 N/A N/A MISG        N/A
JACKSON        MOCLDY    41  34  76 S14       29.75F
DYERSBURG      CLOUDY    41  25  52 S5        29.73F
UNION CITY     CLEAR     39  36  87 S7        29.70F WCI  34
PARIS          PTCLDY    36  30  80 S9        29.72F WCI  29
LEXINGTON      SUNNY     37  34  87 S9        29.76F WCI  31
SAVANNAH       SUNNY     37  34  87 S6        29.81F WCI  33
$$

TNZ008-025-027-028-033-062-065-066-251500-
NORTH MIDDLE TENNESSEE

CITY           SKY/WX    TMP DP  RH WIND       PRES   REMARKS
NASHVILLE      PTSUNNY   39  33  79 S7        29.80F WCI  34
CLARKSVILLE    CLOUDY    40  33  76 S12       29.73F WCI  33
SMYRNA         MOSUNNY   37  32  82 SW7       29.82F WCI  31
COOKEVILLE     SUNNY     37  32  81 S3        29.80S
CROSSVILLE     MOSUNNY   36  29  75 S8        29.82F WCI  30
$$

TNZ061-075-076-078-094-096-097-251500-
SOUTH MIDDLE TENNESSEE

CITY           SKY/WX    TMP DP  RH WIND       PRES   REMARKS
FAYETTEVILLE   SUNNY     36  30  80 MISG      29.85S
TULLAHOMA      SUNNY     36  30  80 S5        29.84S WCI  32
WINCHESTER     SUNNY     34  30  86 E7        29.86S WCI  28
MCMINNVILLE    SUNNY     41  32  70 CALM      29.82S
COLUMBIA         N/A     39  39 100 SW7       29.80S WCI  34
SHELBYVILLE    SUNNY     37  34  87 S8        29.84R WCI  31
$$

TNZ017-018-042-046-047-251500-
NORTHEAST TENNESSEE

CITY           SKY/WX    TMP DP  RH WIND       PRES   REMARKS
TRI CITIES     MOSUNNY   30  28  92 CALM      29.88S
ELIZABETHTON   SUNNY     28  27  93 CALM      29.89R
$$

TNZ012-013-036-069-073-074-251500-
CENTRAL EAST TENNESSEE

CITY           SKY/WX    TMP DP  RH WIND       PRES   REMARKS
KNOXVILLE      MOSUNNY   37  30  75 W7        29.87R WCI  32
OAK RIDGE      SUNNY     32  29  88 CALM      29.89S
GATLINBURG     SUNNY     28  27  93 CALM      29.86S
MORRISTOWN     SUNNY     30  28  93 E3        29.87R
$$

TNZ083-085-099-251500-
SOUTHEAST TENNESSEE

CITY           SKY/WX    TMP DP  RH WIND       PRES   REMARKS
CHATTANOOGA    MOSUNNY   34  30  85 CALM      29.90F
$$

SKY/WX REPORTED AS FAIR MEANS FEW OR NO CLOUDS BELOW
12 THOUSAND FEET.



USA.gov is the U.S. government's official web portal to all federal, state and local government web resources and services.